sat.trackr.live / text

‹ back to catalog

AEHF-3 (USA 246)

NORAD 39256 · 2013-050A

PAYLOAD ACTIVE UNKNOWN

§ Identity

Operator
Country
US
Launch date
2013-09-18
Launch site
AFETR
Launch vehicle
Mass (kg)
RCS (m²)
19.95

Purposes: comms

External: N2YO · Heavens-Above · Gunter

§ Orbital elements

Epoch: 2026-05-24T22:01:07.742208Z

Period
1,436.04 min
Inclination
5.2370°
Eccentricity
0.0088049
Mean motion
1.00275669 rev/d
Perigee alt
35,414.3 km
Apogee alt
36,156.8 km
Semi-major
42,163.6 km
B*
0.0000e+0
RAAN
67.4031°
Arg perigee
188.4331°
Mean anomaly
192.7821°
Rev number
4,542

§ Raw data

AEHF-3 (USA 246)1 39256U 13050A   26144.91745072  .00000026  00000+0  00000+0 0  99922 39256   5.2370  67.4031 0088049 188.4331 192.7821  1.00275669 45423

JSON: /api/v1/satellites/39256 · /tle

For live sub-satellite position, see the globe view (requires WebGL).

§ Visibility from observer

Set your observer location to see the next 7 days of passes ≥ 10°. The values pass through the URL so the page stays shareable.

No JS? Fill the form by hand. The geolocation button needs JavaScript.